Location: Ferchesar
(52.6477°N, 12.4298°E)
Time: 10:11:24
(UTC+01:00)

Vanguard 1 - Pass Details

Date: 10 December 2021
Orbit: 652 x 3830 km, 34.2° (Epoch: 24 January)

Event Time Altitude Azimuth Distance (km) Brightness Sun altitude
Rises 23:12:58 0° 235° (SW) 6,690 14.3 -58.8°
Enters shadow 23:15:21 - 232° (SW) 6,305 14.1 -59.0°
Reaches altitude 10° 23:17:15 10° 229° (SW) 6,019 - -59.1°
Maximum altitude 23:35:45 44° 166° (SSE) 4,666 - -59.9°
Exits shadow 23:55:52 11° 105° (ESE) 6,546 14.1 -60.3°
Drops below altitude 10° 23:56:06 10° 105° (ESE) 6,580 14.1 -60.3°
Sets 00:01:02 0° 100° (E) 7,335 14.5 -60.3°
